SCP
0 0 0 0 0 0 0 0 0 0 0 0 0 0 0 0 0 0 0 0 0 0 0 0 0 0 0 0 0 0 0 0 0 0 0 0 0 0 0 0 0 0 0 0 1
0 0 0 0 0 0 0 0 0 0 0 0 0 0 0 0 0 0 0 0 0 0 0 0 0 0 0 0 0 0 0 0 0 0 0 0 0 0 0 0 0 0 0 0 0
0 0 0 0 0 0 0 0 0 0 0 0 0 0 0 0 0 0 0 0 0 0 -0 0 0 0 0 0 0 0 0 0 0 0 0 0 0 0 0 0 0 0 0 0 0
0 0 0 0 0 0 0 0 0 0 0 0 0 0 0 0 0 0 0 0 0 0 0 0 0 0 0 0 0 0 0 0 0 0 0 0 0 0 0 0 0 0 0 0 0
0 0 0 0 0 0 0 0 0 0 0 0 0 0 0 0 0 0 -0 0 0 0 0 0 0 0 0 0 0 0 0 0 0 0 0 0 0 0 0 0 0 0 0 0 0
0 0 0 0 0 0 0 0 0 0 0 0 0 0 0 0 0 0 0 0 0 -0 0 0 0 0 0 0 0 0 0 0 0 0 0 0 0 0 0 0 0 0 0 0 0
0 0 0 0 0 0 0 0 0 0 0 0 0 0 0 0 0 0 0 0 0 0 0 0 0 0 0 0 0 0 0 0 0 0 0 0 0 0 0 0 0 0 0 0 0
0 0 0 0 0 0 0 0 0 0 0 0 0 0 0 0 0 0 0 0 0 0 0 0 0 0 0 0 0 0 0 0 0 0 0 0 0 0 -0 0 0 0 0 0 0
0 0 0 0 0 0 0 0 0 0 0 0 0 0 0 0 0 0 0 0 0 0 0 0 0 0 0 0 0 0 0 0 0 0 0 0 0 0 0 0 0 0 0 0 0
0 0 0 0 0 0 0 0 0 0 0 0 0 0 0 0 0 0 0 0 0 0 0 0 0 0 0 0 0 0 0 0 0 0 0 0 0 0 -0 -0 0 -0 -0 0 0
0 0 0 0 0 0 0 0 0 0 0 0 0 0 0 0 0 0 0 0 0 0 0 0 0 0 0 0 0 0 0 0 0 0 0 0 0 0 0 0 0 0 -0 -0 0
0 0 0 0 0 0 0 0 0 0 0 0 0 0 -0 0 0 0 0 0 0 0 0 0 0 0 0 0 0 0 0 0 0 0 0 0 0 0 0 -0 0 0 0 -0 0
0 0 0 -0 0 0 0 0 -0 0 0 0 0 0 0 0 0 0 0 0 0 0 0 0 0 0 0 0 0 0 0 0 0 0 0 0 0 -0 -0 0 0 0 -0 0 -0
0 0 0 -0 0 0 0 0 0 0 0 0 0 0 0 0 0 0 0 0 0 0 0 0 -0 0 0 0 0 0 0 0 0 0 0 -0 0 -0 0 0 0 0 0 0 0
0 0 0 0 0 0 0 0 0 0 0 0 0 0 -0 -0 0 -0 -0 -0 0 -0 0 0 0 0 0 0 0 0 0 0 0 0 0 0 0 0 0 0 -0 0 0 0 0
0 0 0 0 0 0 -0 0 0 0 0 0 0 0 -0 0 0 -0 -0 -0 0 -0 -0 -0 0 0 0 0 0 0 0 0 0 0 0 0 0 0 0 0 0 0 0 0 0
0 0 0 0 0 0 0 0 0 0 0 0 0 0 0 0 -0 -0 -0 -0 -0 0 0 0 0 0 0 0 0 -0 0 0 0 0 0 0 0 0 0 0 0 0 0 0 0
0 0 0 0 0 0 0 0 0 0 -0 0 0 -0 0 0 -0 0 0 0 0 0 0 0 0 0 0 0 0 0 0 0 0 0 0 0 0 0 0 0 0 0 0 0 0
0 0 0 0 0 0 0 0 0 0 0 0 0 0 0 0 0 0 0 -0 -0 -0 0 0 -0 0 0 0 0 0 0 0 0 0 0 0 0 0 0 0 0 0 0 0 0
0 0 0 0 0 0 0 -0 0 -0 0 0 0 0 -0 0 0 -0 0 0 -0 -0 0 0 0 0 0 0 0 0 0 0 0 0 0 0 -0 0 0 0 0 0 0 0 0
0 0 0 0 0 0 0 0 -0 0 0 0 0 0 -0 0 0 0 0 0 0 0 0 0 0 0 0 0 0 0 0 0 0 0 0 0 0 0 0 0 0 0 0 0 0
0 0 0 0 0 0 0 -0 0 0 0 0 0 0 0 -0 -0 0 0 0 0 0 0 0 0 0 0 0 0 0 0 0 0 0 0 0 0 0 0 0 0 0 0 0 0
0 0 0 0 0 0 -0 -0 0 -0 0 0 0 0 0 0 -0 0 0 0 0 0 0 0 0 0 0 0 0 0 0 -0 0 0 0 0 0 0 0 0 0 0 0 0 0
0 0 0 0 0 0 0 0 0 0 0 0 0 0 0 0 0 0 0 0 0 0 0 0 0 0 0 0 0 0 0 0 0 0 0 0 0 0 0 0 0 0 0 0 0
0 0 0 0 0 0 0 0 0 -0 0 0 0 0 0 0 0 0 0 0 0 0 0 0 0 0 0 -0 0 0 0 0 0 0 0 0 0 0 -0 0 0 0 0 0 0
0 0 0 0 0 0 0 0 0 0 0 0 0 0 0 0 0 0 -0 -0 0 0 0 0 0 0 0 -0 -0 0 0 0 0 0 0 0 0 0 0 0 0 0 0 0 0
0 0 0 0 0 0 0 0 0 0 0 0 0 0 0 0 0 0 0 0 0 0 0 0 0 0 0 0 0 0 0 0 0 0 0 0 0 0 0 0 0 0 0 0 0
Wind_Speed_500mb
27 28 28 30 30 30 30 31 33 35 38 41 40 37 38 40 43 43 49 38 22 28 29 16 30 36 32 37 37 26 27 33 43 45 34 28 21 28 28 37 23 31 39 11 4
30 30 29 29 30 31 32 33 33 34 36 37 39 42 42 40 47 57 50 52 41 40 26 33 39 43 45 41 36 34 28 45 38 29 28 18 26 19 28 35 39 40 43 12 13
33 31 29 30 31 32 33 34 35 36 37 39 40 38 38 36 45 31 21 29 31 46 32 32 29 43 46 38 50 42 41 37 36 21 27 33 35 31 33 38 44 42 46 36 23
35 34 33 33 33 34 36 37 39 40 40 40 42 43 34 23 15 1 7 16 27 32 38 40 35 46 40 40 46 42 40 43 45 24 30 31 39 40 43 46 45 46 44 32 29
38 37 35 36 38 39 41 41 43 43 42 44 43 44 37 28 61 42 49 22 18 41 42 45 46 49 39 38 39 41 39 37 36 39 41 42 43 43 51 51 48 49 55 52 41
39 37 37 37 40 43 44 46 47 47 44 48 50 46 23 42 29 24 25 27 25 38 40 44 38 44 40 41 30 35 44 47 41 41 38 38 43 43 41 35 46 57 64 66 57
38 39 40 42 44 46 48 49 50 51 51 52 43 26 32 61 19 19 29 33 33 37 36 41 35 29 29 26 38 35 32 34 40 44 37 30 35 43 51 49 52 54 53 67 74
40 42 43 45 47 49 51 52 53 49 55 31 23 21 31 32 26 52 32 37 43 37 35 31 35 32 37 30 10 35 36 35 40 45 41 29 29 23 25 31 41 49 57 60 62
43 45 45 47 49 51 54 53 54 54 29 21 12 21 25 13 43 39 47 42 44 42 37 28 33 39 33 30 27 33 33 41 30 25 17 30 26 21 19 20 27 34 42 51 58
46 50 50 50 53 52 55 52 32 11 2 10 10 16 28 26 20 34 49 40 43 45 39 37 32 30 32 29 32 31 35 36 29 23 25 28 31 27 30 31 24 25 32 42 51
52 56 58 53 55 54 60 35 12 13 26 28 23 35 20 9 13 25 52 45 43 50 35 52 34 40 44 45 42 31 35 39 32 20 14 23 24 29 23 31 21 22 26 32 37
57 59 63 62 53 54 48 13 14 25 41 49 68 59 52 12 15 25 51 53 46 43 46 29 43 44 40 40 40 42 27 23 20 23 19 26 29 23 26 24 21 16 17 22 27
60 59 62 65 49 29 10 31 40 30 22 45 46 56 51 45 39 41 63 59 44 47 46 35 31 42 39 37 38 37 35 30 27 23 23 23 31 35 30 18 17 15 14 11 15
61 58 58 62 26 17 36 10 15 12 15 20 17 15 41 37 33 40 70 62 32 46 44 38 38 35 30 40 38 36 35 31 24 22 25 37 26 24 19 11 20 12 6 14 19
59 55 53 52 49 32 19 17 5 6 14 20 15 16 39 48 11 49 66 70 41 40 32 36 37 24 39 39 37 33 22 29 34 32 28 32 16 23 29 17 22 14 7 10 6
60 53 53 45 31 41 22 15 9 13 17 11 17 24 38 41 10 41 58 67 48 40 43 41 37 36 32 34 33 29 25 20 23 24 28 34 29 27 25 26 25 22 10 7 7
64 55 56 44 37 12 21 17 14 19 5 7 3 9 13 32 38 30 44 51 41 33 34 39 35 36 31 38 35 37 22 22 25 25 27 34 33 28 13 9 10 17 6 5 8
65 58 41 28 25 28 22 22 28 23 22 18 10 21 19 5 27 36 31 39 40 31 12 22 30 35 26 37 39 41 32 26 28 24 28 41 26 16 8 26 12 6 3 2 9
64 36 28 19 25 30 36 27 33 21 13 3 6 4 7 16 20 30 35 42 38 45 35 35 35 31 41 32 32 35 33 36 35 27 16 10 16 17 18 23 17 13 5 6 7
55 39 16 9 17 34 25 42 42 37 19 10 24 8 8 7 18 31 35 41 48 59 43 15 26 30 24 34 40 41 28 23 17 29 30 28 35 16 28 26 22 17 12 6 4
35 21 1 6 21 35 23 38 39 34 10 7 20 12 9 11 10 26 16 7 38 36 35 35 20 12 10 25 38 32 38 22 30 24 23 27 4 4 12 24 22 14 15 8 0
20 13 7 11 16 23 29 45 30 27 8 16 12 7 14 22 11 2 9 8 13 14 36 37 17 22 37 19 9 29 19 37 23 33 5 20 5 13 11 7 7 11 14 6 6
29 25 15 13 11 20 34 48 23 47 8 15 4 2 8 12 5 3 12 20 24 4 6 9 14 16 12 23 29 23 38 31 22 7 27 16 2 20 8 9 9 4 11 11 7
18 10 10 19 32 25 30 29 30 32 27 12 17 10 6 10 5 10 12 4 20 13 8 17 12 17 11 5 19 27 36 29 25 18 18 23 22 37 16 7 10 10 13 13 14
11 5 7 15 17 21 30 33 38 14 24 13 13 19 15 12 20 16 20 11 19 6 8 4 14 25 18 18 13 27 18 25 26 21 26 26 32 35 34 10 16 22 27 33 30
19 18 32 42 43 30 21 29 37 23 17 6 13 25 27 22 5 7 18 19 17 14 12 6 13 9 21 23 18 27 24 23 20 25 24 26 26 23 16 17 18 19 18 24 30
16 20 24 31 29 25 5 17 24 35 23 5 10 17 12 15 10 13 10 12 12 11 11 8 12 12 19 5 7 20 29 33 31 28 23 23 7 20 7 10 11 12 8 16 16
Wind_Direction_500mb
340 336 332 329 326 321 317 312 308 306 306 307 306 304 304 305 298 294 273 256 243 251 239 220 202 208 211 225 222 232 255 245 244 248 249 259 272 274 247 266 255 261 231 285 313
334 330 327 325 323 322 319 317 312 307 304 304 306 309 311 313 307 286 278 265 252 239 220 202 199 199 211 215 212 226 227 242 255 281 278 271 287 268 270 253 247 245 246 257 250
333 330 325 324 323 321 316 313 311 308 306 305 303 305 309 318 311 284 258 248 241 226 198 205 206 200 215 216 213 221 243 254 256 261 287 284 277 269 259 256 255 253 235 219 226
335 330 326 322 319 319 317 312 309 308 308 305 301 299 303 307 271 270 282 278 245 210 194 206 209 206 217 213 225 234 249 253 265 262 260 259 268 264 259 259 263 261 258 244 198
332 329 323 320 319 318 316 313 311 308 306 304 297 295 301 257 251 277 278 283 208 184 197 203 210 209 222 227 228 238 244 246 248 259 259 264 264 266 263 263 257 255 255 253 238
328 327 324 316 314 315 315 313 310 307 303 300 297 291 279 261 270 237 235 221 186 185 201 204 212 217 237 252 232 230 237 256 250 250 249 256 264 262 258 256 254 248 247 248 244
330 329 324 319 317 314 313 310 309 307 303 300 292 268 249 240 243 231 227 216 197 196 203 208 212 229 227 258 242 250 252 246 240 243 245 252 263 256 261 255 251 245 245 244 242
330 327 325 321 316 313 312 310 308 305 300 298 272 221 248 261 245 241 222 216 208 204 210 214 219 235 243 247 238 232 237 251 240 213 216 213 262 277 262 251 233 246 249 247 244
327 326 324 320 316 314 312 311 309 297 291 282 212 201 264 288 234 227 209 205 200 206 210 216 215 222 220 241 233 220 238 223 225 186 229 183 254 267 302 271 258 244 246 247 243
323 322 322 321 317 315 311 317 319 279 108 153 236 226 257 248 241 212 202 197 191 192 197 203 210 215 225 212 227 219 218 254 214 157 225 214 237 262 260 261 257 248 245 242 239
321 321 320 320 318 317 315 326 247 196 216 218 236 227 280 250 239 209 192 191 186 189 191 196 208 211 212 220 235 244 256 226 207 208 214 254 261 267 271 275 270 257 242 253 240
318 319 318 317 319 313 307 245 294 307 296 257 255 248 250 251 227 195 181 192 195 197 203 180 219 223 224 221 228 244 244 243 249 236 237 262 251 261 279 260 267 307 256 245 239
314 316 317 315 325 327 268 277 287 286 271 286 253 232 227 223 232 184 187 192 192 203 201 207 217 224 220 220 219 231 229 226 240 220 222 265 266 253 245 232 249 259 288 297 239
318 317 318 318 329 300 304 298 309 271 275 231 192 226 198 203 221 199 194 194 193 203 213 213 224 209 205 221 209 219 215 238 242 248 248 226 252 239 193 197 202 218 276 356 340
319 320 317 317 296 293 277 297 292 229 282 152 129 152 176 198 262 190 192 202 192 211 220 212 235 201 205 214 207 232 212 220 226 232 248 254 245 269 170 206 231 163 167 76 7
319 320 314 312 283 278 266 279 274 239 246 150 137 179 176 211 233 170 185 209 230 216 210 228 209 211 219 223 220 228 239 236 242 236 231 235 245 236 234 189 202 132 104 50 19
319 320 303 287 265 273 249 221 232 242 191 139 161 121 242 204 208 194 186 201 214 221 218 212 209 217 222 216 197 227 198 217 216 219 234 224 220 240 76 90 107 87 80 45 348
322 321 312 277 268 204 208 217 246 274 281 141 136 197 210 287 233 194 196 201 216 254 231 227 217 203 189 234 206 208 214 243 210 208 228 200 224 204 124 103 105 144 80 355 10
328 328 303 266 229 201 204 223 238 252 337 68 213 290 251 244 226 215 194 212 201 207 212 206 219 216 225 219 237 213 215 238 269 275 263 300 237 132 158 150 164 167 177 73 50
330 320 280 227 187 184 226 244 260 291 343 331 282 250 197 17 276 201 206 227 204 213 212 245 230 207 205 213 220 238 232 220 233 256 238 207 206 244 166 182 162 160 142 115 82
338 299 45 186 169 202 232 241 242 281 261 261 288 233 173 140 312 251 280 230 198 223 213 219 216 250 126 226 211 208 230 223 254 236 255 254 133 355 42 1 159 138 120 148 118
324 294 349 158 202 231 243 250 312 226 228 273 301 304 229 173 215 287 30 341 356 215 203 224 237 181 206 312 17 257 259 220 233 215 167 304 39 298 173 216 85 138 141 115 330
311 291 231 215 257 255 259 275 297 257 311 251 180 215 349 213 149 224 100 281 304 216 319 264 214 218 211 240 229 232 202 215 242 296 256 252 172 343 233 183 133 246 144 170 225
301 295 184 234 279 287 290 285 290 316 247 237 135 155 283 244 172 170 183 154 284 244 46 259 230 241 247 160 338 246 230 237 261 262 254 236 197 214 215 167 154 190 246 261 297
263 309 352 295 296 295 293 290 286 248 265 190 194 217 176 279 178 184 155 159 276 132 242 278 258 231 159 151 213 268 275 253 227 251 243 265 277 193 199 302 320 307 292 287 276
311 329 323 290 282 274 287 292 310 326 272 237 208 182 181 227 330 136 177 174 184 211 230 207 269 283 266 205 178 274 273 273 247 223 234 248 282 298 319 7 328 317 316 305 286
315 312 299 289 280 278 314 339 314 301 263 329 262 266 195 62 38 53 29 35 47 279 218 248 256 218 259 280 342 266 243 236 240 242 250 252 325 39 357 16 352 325 349 344 1
Wind_Speed_850mb
27 28 28 30 30 30 30 31 33 35 38 41 40 37 38 40 43 43 49 38 22 28 29 16 30 36 32 37 37 26 27 33 43 45 34 28 21 28 28 37 23 31 39 11 4
30 30 29 29 30 31 32 33 33 34 36 37 39 42 42 40 47 57 50 52 41 40 26 33 39 43 45 41 36 34 28 45 38 29 28 18 26 19 28 35 39 40 43 12 13
33 31 29 30 31 32 33 34 35 36 37 39 40 38 38 36 45 31 21 29 31 46 32 32 29 43 46 38 50 42 41 37 36 21 27 33 35 31 33 38 44 42 46 36 23
35 34 33 33 33 34 36 37 39 40 40 40 42 43 34 23 15 1 7 16 27 32 38 40 35 46 40 40 46 42 40 43 45 24 30 31 39 40 43 46 45 46 44 32 29
38 37 35 36 38 39 41 41 43 43 42 44 43 44 37 28 61 42 49 22 18 41 42 45 46 49 39 38 39 41 39 37 36 39 41 42 43 43 51 51 48 49 55 52 41
39 37 37 37 40 43 44 46 47 47 44 48 50 46 23 42 29 24 25 27 25 38 40 44 38 44 40 41 30 35 44 47 41 41 38 38 43 43 41 35 46 57 64 66 57
38 39 40 42 44 46 48 49 50 51 51 52 43 26 32 61 19 19 29 33 33 37 36 41 35 29 29 26 38 35 32 34 40 44 37 30 35 43 51 49 52 54 53 67 74
40 42 43 45 47 49 51 52 53 49 55 31 23 21 31 32 26 52 32 37 43 37 35 31 35 32 37 30 10 35 36 35 40 45 41 29 29 23 25 31 41 49 57 60 62
43 45 45 47 49 51 54 53 54 54 29 21 12 21 25 13 43 39 47 42 44 42 37 28 33 39 33 30 27 33 33 41 30 25 17 30 26 21 19 20 27 34 42 51 58
46 50 50 50 53 52 55 52 32 11 2 10 10 16 28 26 20 34 49 40 43 45 39 37 32 30 32 29 32 31 35 36 29 23 25 28 31 27 30 31 24 25 32 42 51
52 56 58 53 55 54 60 35 12 13 26 28 23 35 20 9 13 25 52 45 43 50 35 52 34 40 44 45 42 31 35 39 32 20 14 23 24 29 23 31 21 22 26 32 37
57 59 63 62 53 54 48 13 14 25 41 49 68 59 52 12 15 25 51 53 46 43 46 29 43 44 40 40 40 42 27 23 20 23 19 26 29 23 26 24 21 16 17 22 27
60 59 62 65 49 29 10 31 40 30 22 45 46 56 51 45 39 41 63 59 44 47 46 35 31 42 39 37 38 37 35 30 27 23 23 23 31 35 30 18 17 15 14 11 15
61 58 58 62 26 17 36 10 15 12 15 20 17 15 41 37 33 40 70 62 32 46 44 38 38 35 30 40 38 36 35 31 24 22 25 37 26 24 19 11 20 12 6 14 19
59 55 53 52 49 32 19 17 5 6 14 20 15 16 39 48 11 49 66 70 41 40 32 36 37 24 39 39 37 33 22 29 34 32 28 32 16 23 29 17 22 14 7 10 6
60 53 53 45 31 41 22 15 9 13 17 11 17 24 38 41 10 41 58 67 48 40 43 41 37 36 32 34 33 29 25 20 23 24 28 34 29 27 25 26 25 22 10 7 7
64 55 56 44 37 12 21 17 14 19 5 7 3 9 13 32 38 30 44 51 41 33 34 39 35 36 31 38 35 37 22 22 25 25 27 34 33 28 13 9 10 17 6 5 8
65 58 41 28 25 28 22 22 28 23 22 18 10 21 19 5 27 36 31 39 40 31 12 22 30 35 26 37 39 41 32 26 28 24 28 41 26 16 8 26 12 6 3 2 9
64 36 28 19 25 30 36 27 33 21 13 3 6 4 7 16 20 30 35 42 38 45 35 35 35 31 41 32 32 35 33 36 35 27 16 10 16 17 18 23 17 13 5 6 7
55 39 16 9 17 34 25 42 42 37 19 10 24 8 8 7 18 31 35 41 48 59 43 15 26 30 24 34 40 41 28 23 17 29 30 28 35 16 28 26 22 17 12 6 4
35 21 1 6 21 35 23 38 39 34 10 7 20 12 9 11 10 26 16 7 38 36 35 35 20 12 10 25 38 32 38 22 30 24 23 27 4 4 12 24 22 14 15 8 0
20 13 7 11 16 23 29 45 30 27 8 16 12 7 14 22 11 2 9 8 13 14 36 37 17 22 37 19 9 29 19 37 23 33 5 20 5 13 11 7 7 11 14 6 6
29 25 15 13 11 20 34 48 23 47 8 15 4 2 8 12 5 3 12 20 24 4 6 9 14 16 12 23 29 23 38 31 22 7 27 16 2 20 8 9 9 4 11 11 7
18 10 10 19 32 25 30 29 30 32 27 12 17 10 6 10 5 10 12 4 20 13 8 17 12 17 11 5 19 27 36 29 25 18 18 23 22 37 16 7 10 10 13 13 14
11 5 7 15 17 21 30 33 38 14 24 13 13 19 15 12 20 16 20 11 19 6 8 4 14 25 18 18 13 27 18 25 26 21 26 26 32 35 34 10 16 22 27 33 30
19 18 32 42 43 30 21 29 37 23 17 6 13 25 27 22 5 7 18 19 17 14 12 6 13 9 21 23 18 27 24 23 20 25 24 26 26 23 16 17 18 19 18 24 30
16 20 24 31 29 25 5 17 24 35 23 5 10 17 12 15 10 13 10 12 12 11 11 8 12 12 19 5 7 20 29 33 31 28 23 23 7 20 7 10 11 12 8 16 16
Wind_Direction_850mb
340 336 332 329 326 321 317 312 308 306 306 307 306 304 304 305 298 294 273 256 243 251 239 220 202 208 211 225 222 232 255 245 244 248 249 259 272 274 247 266 255 261 231 285 313
334 330 327 325 323 322 319 317 312 307 304 304 306 309 311 313 307 286 278 265 252 239 220 202 199 199 211 215 212 226 227 242 255 281 278 271 287 268 270 253 247 245 246 257 250
333 330 325 324 323 321 316 313 311 308 306 305 303 305 309 318 311 284 258 248 241 226 198 205 206 200 215 216 213 221 243 254 256 261 287 284 277 269 259 256 255 253 235 219 226
335 330 326 322 319 319 317 312 309 308 308 305 301 299 303 307 271 270 282 278 245 210 194 206 209 206 217 213 225 234 249 253 265 262 260 259 268 264 259 259 263 261 258 244 198
332 329 323 320 319 318 316 313 311 308 306 304 297 295 301 257 251 277 278 283 208 184 197 203 210 209 222 227 228 238 244 246 248 259 259 264 264 266 263 263 257 255 255 253 238
328 327 324 316 314 315 315 313 310 307 303 300 297 291 279 261 270 237 235 221 186 185 201 204 212 217 237 252 232 230 237 256 250 250 249 256 264 262 258 256 254 248 247 248 244
330 329 324 319 317 314 313 310 309 307 303 300 292 268 249 240 243 231 227 216 197 196 203 208 212 229 227 258 242 250 252 246 240 243 245 252 263 256 261 255 251 245 245 244 242
330 327 325 321 316 313 312 310 308 305 300 298 272 221 248 261 245 241 222 216 208 204 210 214 219 235 243 247 238 232 237 251 240 213 216 213 262 277 262 251 233 246 249 247 244
327 326 324 320 316 314 312 311 309 297 291 282 212 201 264 288 234 227 209 205 200 206 210 216 215 222 220 241 233 220 238 223 225 186 229 183 254 267 302 271 258 244 246 247 243
323 322 322 321 317 315 311 317 319 279 108 153 236 226 257 248 241 212 202 197 191 192 197 203 210 215 225 212 227 219 218 254 214 157 225 214 237 262 260 261 257 248 245 242 239
321 321 320 320 318 317 315 326 247 196 216 218 236 227 280 250 239 209 192 191 186 189 191 196 208 211 212 220 235 244 256 226 207 208 214 254 261 267 271 275 270 257 242 253 240
318 319 318 317 319 313 307 245 294 307 296 257 255 248 250 251 227 195 181 192 195 197 203 180 219 223 224 221 228 244 244 243 249 236 237 262 251 261 279 260 267 307 256 245 239
314 316 317 315 325 327 268 277 287 286 271 286 253 232 227 223 232 184 187 192 192 203 201 207 217 224 220 220 219 231 229 226 240 220 222 265 266 253 245 232 249 259 288 297 239
318 317 318 318 329 300 304 298 309 271 275 231 192 226 198 203 221 199 194 194 193 203 213 213 224 209 205 221 209 219 215 238 242 248 248 226 252 239 193 197 202 218 276 356 340
319 320 317 317 296 293 277 297 292 229 282 152 129 152 176 198 262 190 192 202 192 211 220 212 235 201 205 214 207 232 212 220 226 232 248 254 245 269 170 206 231 163 167 76 7
319 320 314 312 283 278 266 279 274 239 246 150 137 179 176 211 233 170 185 209 230 216 210 228 209 211 219 223 220 228 239 236 242 236 231 235 245 236 234 189 202 132 104 50 19
319 320 303 287 265 273 249 221 232 242 191 139 161 121 242 204 208 194 186 201 214 221 218 212 209 217 222 216 197 227 198 217 216 219 234 224 220 240 76 90 107 87 80 45 348
322 321 312 277 268 204 208 217 246 274 281 141 136 197 210 287 233 194 196 201 216 254 231 227 217 203 189 234 206 208 214 243 210 208 228 200 224 204 124 103 105 144 80 355 10
328 328 303 266 229 201 204 223 238 252 337 68 213 290 251 244 226 215 194 212 201 207 212 206 219 216 225 219 237 213 215 238 269 275 263 300 237 132 158 150 164 167 177 73 50
330 320 280 227 187 184 226 244 260 291 343 331 282 250 197 17 276 201 206 227 204 213 212 245 230 207 205 213 220 238 232 220 233 256 238 207 206 244 166 182 162 160 142 115 82
338 299 45 186 169 202 232 241 242 281 261 261 288 233 173 140 312 251 280 230 198 223 213 219 216 250 126 226 211 208 230 223 254 236 255 254 133 355 42 1 159 138 120 148 118
324 294 349 158 202 231 243 250 312 226 228 273 301 304 229 173 215 287 30 341 356 215 203 224 237 181 206 312 17 257 259 220 233 215 167 304 39 298 173 216 85 138 141 115 330
311 291 231 215 257 255 259 275 297 257 311 251 180 215 349 213 149 224 100 281 304 216 319 264 214 218 211 240 229 232 202 215 242 296 256 252 172 343 233 183 133 246 144 170 225
301 295 184 234 279 287 290 285 290 316 247 237 135 155 283 244 172 170 183 154 284 244 46 259 230 241 247 160 338 246 230 237 261 262 254 236 197 214 215 167 154 190 246 261 297
263 309 352 295 296 295 293 290 286 248 265 190 194 217 176 279 178 184 155 159 276 132 242 278 258 231 159 151 213 268 275 253 227 251 243 265 277 193 199 302 320 307 292 287 276
311 329 323 290 282 274 287 292 310 326 272 237 208 182 181 227 330 136 177 174 184 211 230 207 269 283 266 205 178 274 273 273 247 223 234 248 282 298 319 7 328 317 316 305 286
315 312 299 289 280 278 314 339 314 301 263 329 262 266 195 62 38 53 29 35 47 279 218 248 256 218 259 280 342 266 243 236 240 242 250 252 325 39 357 16 352 325 349 344 1